Time,TemperatureF,DewpointF,PressureIn,WindDirection,WindDirectionDegrees,WindSpeedMPH,WindSpeedGustMPH,Humidity,HourlyPrecipIn,Conditions,Clouds,dailyrainin,SoftwareType,DateUTC
2013-10-15 00:01:00,58.9,56.9,30.21,WNW,300,0.0,0.0,93,0.00,,---,0.00,VWS V14.01,2013-10-15 04:01:00,
2013-10-15 00:06:00,58.8,56.8,30.21,WNW,300,0.0,0.0,93,0.00,,---,0.00,VWS V14.01,2013-10-15 04:06:00,
2013-10-15 00:11:00,58.8,57.1,30.21,WNW,300,0.0,0.0,94,0.00,,---,0.00,VWS V14.01,2013-10-15 04:11:00,
2013-10-15 00:16:00,58.8,57.1,30.20,WNW,300,0.0,0.0,94,0.00,,---,0.00,VWS V14.01,2013-10-15 04:16:00,
2013-10-15 00:21:00,58.7,57.0,30.20,WNW,300,0.0,0.0,94,0.00,,---,0.00,VWS V14.01,2013-10-15 04:21:00,
2013-10-15 00:26:00,58.7,57.0,30.21,WNW,300,0.0,0.0,94,0.00,,---,0.00,VWS V14.01,2013-10-15 04:26:00,
2013-10-15 00:31:00,58.7,57.0,30.21,WNW,300,0.0,0.0,94,0.00,,---,0.00,VWS V14.01,2013-10-15 04:31:00,
2013-10-15 00:36:00,58.6,56.9,30.21,WNW,300,0.0,0.0,94,0.00,,---,0.00,VWS V14.01,2013-10-15 04:36:00,
2013-10-15 00:41:00,58.6,56.9,30.20,WNW,300,0.0,0.0,94,0.00,,---,0.00,VWS V14.01,2013-10-15 04:41:00,
2013-10-15 00:46:00,58.6,56.9,30.21,WNW,300,0.0,0.0,94,0.00,,---,0.00,VWS V14.01,2013-10-15 04:46:00,
2013-10-15 00:51:00,58.5,56.8,30.21,WNW,300,0.0,0.0,94,0.00,,---,0.00,VWS V14.01,2013-10-15 04:51:00,
2013-10-15 00:56:00,58.5,56.8,30.20,WNW,300,0.0,0.0,94,0.00,,---,0.00,VWS V14.01,2013-10-15 04:56:00,
2013-10-15 01:01:00,58.4,56.7,30.20,WNW,300,0.0,0.0,94,0.00,,---,0.00,VWS V14.01,2013-10-15 05:01:00,
2013-10-15 01:06:00,58.4,56.7,30.20,WNW,300,0.0,0.0,94,0.00,,---,0.00,VWS V14.01,2013-10-15 05:06:00,
2013-10-15 01:11:00,58.4,56.7,30.20,WNW,300,0.0,0.0,94,0.00,,---,0.00,VWS V14.01,2013-10-15 05:11:00,
2013-10-15 01:16:00,58.4,56.7,30.20,WNW,300,0.0,0.0,94,0.00,,---,0.00,VWS V14.01,2013-10-15 05:16:00,
2013-10-15 01:21:00,58.3,56.6,30.20,WNW,300,0.0,0.0,94,0.00,,---,0.00,VWS V14.01,2013-10-15 05:21:00,
2013-10-15 01:26:00,58.3,56.6,30.19,WNW,300,0.0,0.0,94,0.00,,---,0.00,VWS V14.01,2013-10-15 05:26:00,
2013-10-15 01:31:00,58.2,56.5,30.19,WNW,300,0.0,0.0,94,0.00,,---,0.00,VWS V14.01,2013-10-15 05:31:00,
2013-10-15 01:36:00,58.2,56.5,30.19,WNW,300,0.0,0.0,94,0.00,,---,0.00,VWS V14.01,2013-10-15 05:36:00,
2013-10-15 01:41:00,58.2,56.5,30.19,WNW,300,0.0,0.0,94,0.00,,---,0.00,VWS V14.01,2013-10-15 05:41:00,
2013-10-15 01:46:00,58.1,56.4,30.19,WNW,300,0.0,0.0,94,0.00,,---,0.00,VWS V14.01,2013-10-15 05:46:00,
2013-10-15 01:51:00,58.1,56.4,30.19,WNW,300,0.0,0.0,94,0.00,,---,0.00,VWS V14.01,2013-10-15 05:51:00,
2013-10-15 01:56:00,58.0,56.3,30.18,WNW,300,0.0,0.0,94,0.00,,---,0.00,VWS V14.01,2013-10-15 05:56:00,
2013-10-15 02:01:00,58.0,56.3,30.18,WNW,300,0.0,0.0,94,0.00,,---,0.00,VWS V14.01,2013-10-15 06:01:00,
2013-10-15 02:06:00,58.0,56.3,30.18,WNW,300,0.0,0.0,94,0.00,,---,0.00,VWS V14.01,2013-10-15 06:06:00,
2013-10-15 02:11:00,57.9,56.2,30.18,WNW,300,0.0,0.0,94,0.00,,---,0.00,VWS V14.01,2013-10-15 06:11:00,
2013-10-15 02:16:00,57.9,56.2,30.18,WNW,300,0.0,0.0,94,0.00,,---,0.00,VWS V14.01,2013-10-15 06:16:00,
2013-10-15 02:21:00,57.8,56.1,30.17,WNW,300,0.0,0.0,94,0.00,,---,0.00,VWS V14.01,2013-10-15 06:21:00,
2013-10-15 02:26:00,57.8,56.1,30.18,WNW,300,0.0,0.0,94,0.00,,---,0.00,VWS V14.01,2013-10-15 06:26:00,
2013-10-15 02:31:00,57.6,55.9,30.17,WNW,300,0.0,0.0,94,0.00,,---,0.00,VWS V14.01,2013-10-15 06:31:00,
2013-10-15 02:36:00,57.5,55.8,30.17,WNW,300,0.0,0.0,94,0.00,,---,0.00,VWS V14.01,2013-10-15 06:36:00,
2013-10-15 02:41:00,57.3,55.6,30.17,WNW,300,0.0,0.0,94,0.00,,---,0.00,VWS V14.01,2013-10-15 06:41:00,
2013-10-15 02:46:00,57.1,55.4,30.17,WNW,300,0.0,0.0,94,0.00,,---,0.00,VWS V14.01,2013-10-15 06:46:00,
2013-10-15 02:51:00,56.9,55.2,30.17,WNW,300,0.0,0.0,94,0.00,,---,0.00,VWS V14.01,2013-10-15 06:51:00,
2013-10-15 02:56:00,56.6,54.9,30.16,WNW,300,0.0,0.0,94,0.00,,---,0.00,VWS V14.01,2013-10-15 06:56:00,
2013-10-15 03:01:00,56.4,54.7,30.16,WNW,300,0.0,0.0,94,0.00,,---,0.00,VWS V14.01,2013-10-15 07:01:00,
2013-10-15 03:06:00,56.1,54.4,30.16,WNW,300,0.0,0.0,94,0.00,,---,0.00,VWS V14.01,2013-10-15 07:06:00,
2013-10-15 03:11:00,55.8,54.1,30.16,WNW,300,0.0,0.0,94,0.00,,---,0.00,VWS V14.01,2013-10-15 07:11:00,
2013-10-15 03:16:00,55.6,53.9,30.16,WNW,300,0.0,0.0,94,0.00,,---,0.00,VWS V14.01,2013-10-15 07:16:00,
2013-10-15 03:21:00,55.4,53.7,30.16,WNW,300,0.0,0.0,94,0.00,,---,0.00,VWS V14.01,2013-10-15 07:21:00,
2013-10-15 03:26:00,55.1,53.4,30.15,WNW,300,0.0,0.0,94,0.00,,---,0.00,VWS V14.01,2013-10-15 07:26:00,
2013-10-15 03:31:00,54.9,53.2,30.15,WNW,300,0.0,0.0,94,0.00,,---,0.00,VWS V14.01,2013-10-15 07:31:00,
2013-10-15 03:36:00,54.7,53.0,30.15,WNW,300,0.0,0.0,94,0.00,,---,0.00,VWS V14.01,2013-10-15 07:36:00,
2013-10-15 03:41:00,54.4,52.4,30.15,WNW,300,0.0,0.0,93,0.00,,---,0.00,VWS V14.01,2013-10-15 07:41:00,
2013-10-15 03:46:00,54.2,52.2,30.15,WNW,300,0.0,0.0,93,0.00,,---,0.00,VWS V14.01,2013-10-15 07:46:00,
2013-10-15 03:51:00,54.0,52.0,30.15,WNW,300,0.0,0.0,93,0.00,,---,0.00,VWS V14.01,2013-10-15 07:51:00,
2013-10-15 03:56:00,53.8,51.8,30.15,WNW,300,0.0,0.0,93,0.00,,---,0.00,VWS V14.01,2013-10-15 07:56:00,
2013-10-15 04:01:00,53.6,51.9,30.15,WNW,300,0.0,0.0,94,0.00,,---,0.00,VWS V14.01,2013-10-15 08:01:00,
2013-10-15 04:06:00,53.4,51.7,30.15,WNW,300,0.0,0.0,94,0.00,,---,0.00,VWS V14.01,2013-10-15 08:06:00,
2013-10-15 04:11:00,53.3,51.3,30.14,WNW,300,0.0,0.0,93,0.00,,---,0.00,VWS V14.01,2013-10-15 08:11:00,
2013-10-15 04:16:00,53.2,51.5,30.14,WNW,300,0.0,0.0,94,0.00,,---,0.00,VWS V14.01,2013-10-15 08:16:00,
2013-10-15 04:21:00,53.1,51.4,30.14,WNW,300,0.0,0.0,94,0.00,,---,0.00,VWS V14.01,2013-10-15 08:21:00,
2013-10-15 04:26:00,53.0,51.3,30.14,WNW,300,0.0,0.0,94,0.00,,---,0.00,VWS V14.01,2013-10-15 08:26:00,
2013-10-15 04:31:00,53.0,51.3,30.14,WNW,300,0.0,0.0,94,0.00,,---,0.00,VWS V14.01,2013-10-15 08:31:00,
2013-10-15 04:36:00,52.9,51.2,30.14,WNW,300,0.0,0.0,94,0.00,,---,0.00,VWS V14.01,2013-10-15 08:36:00,
2013-10-15 04:41:00,52.9,51.2,30.14,WNW,300,0.0,0.0,94,0.00,,---,0.00,VWS V14.01,2013-10-15 08:41:00,
2013-10-15 04:46:00,53.0,51.3,30.14,WNW,300,0.0,0.0,94,0.00,,---,0.00,VWS V14.01,2013-10-15 08:46:00,
2013-10-15 04:50:00,53.0,51.3,30.14,WNW,300,0.0,0.0,94,0.00,,---,0.00,VWS V14.01,2013-10-15 08:50:00,
2013-10-15 04:55:00,53.0,51.3,30.14,WNW,300,0.0,0.0,94,0.00,,---,0.00,VWS V14.01,2013-10-15 08:55:00,
2013-10-15 05:00:00,53.0,51.3,30.14,WNW,300,0.0,0.0,94,0.00,,---,0.00,VWS V14.01,2013-10-15 09:00:00,
2013-10-15 05:05:00,53.0,51.6,30.14,WNW,300,0.0,0.0,95,0.00,,---,0.00,VWS V14.01,2013-10-15 09:05:00,
2013-10-15 05:10:00,53.1,51.7,30.14,WNW,300,0.0,0.0,95,0.00,,---,0.00,VWS V14.01,2013-10-15 09:10:00,
2013-10-15 05:15:00,53.1,51.7,30.14,WNW,300,0.0,0.0,95,0.00,,---,0.00,VWS V14.01,2013-10-15 09:15:00,
2013-10-15 05:20:00,53.1,51.7,30.15,WNW,300,0.0,0.0,95,0.00,,---,0.00,VWS V14.01,2013-10-15 09:20:00,
2013-10-15 05:25:00,53.1,51.7,30.15,WNW,300,0.0,0.0,95,0.00,,---,0.00,VWS V14.01,2013-10-15 09:25:00,
2013-10-15 05:30:00,53.1,51.7,30.15,WNW,300,0.0,0.0,95,0.00,,---,0.00,VWS V14.01,2013-10-15 09:30:00,
2013-10-15 05:35:00,53.0,51.6,30.15,WNW,300,0.0,0.0,95,0.00,,---,0.00,VWS V14.01,2013-10-15 09:35:00,
2013-10-15 05:40:00,53.0,51.6,30.15,WNW,300,0.0,0.0,95,0.00,,---,0.00,VWS V14.01,2013-10-15 09:40:00,
2013-10-15 05:45:00,52.9,51.5,30.15,WNW,300,0.0,0.0,95,0.00,,---,0.00,VWS V14.01,2013-10-15 09:45:00,
2013-10-15 05:50:00,52.8,51.4,30.15,WNW,300,0.0,0.0,95,0.00,,---,0.00,VWS V14.01,2013-10-15 09:50:00,
2013-10-15 05:55:00,52.8,51.4,30.15,WNW,300,0.0,0.0,95,0.00,,---,0.00,VWS V14.01,2013-10-15 09:55:00,
2013-10-15 06:00:00,52.7,51.3,30.14,WNW,300,0.0,0.0,95,0.00,,---,0.00,VWS V14.01,2013-10-15 10:00:00,
2013-10-15 06:05:00,52.7,51.3,30.15,WNW,300,0.0,0.0,95,0.00,,---,0.00,VWS V14.01,2013-10-15 10:05:00,
2013-10-15 06:10:00,52.6,51.2,30.15,WNW,300,0.0,0.0,95,0.00,,---,0.00,VWS V14.01,2013-10-15 10:10:00,
2013-10-15 06:15:00,52.6,51.2,30.15,WNW,300,0.0,0.0,95,0.00,,---,0.00,VWS V14.01,2013-10-15 10:15:00,
2013-10-15 06:20:00,52.5,51.1,30.16,WNW,300,0.0,0.0,95,0.00,,---,0.00,VWS V14.01,2013-10-15 10:20:00,
2013-10-15 06:25:00,52.4,51.0,30.15,WNW,300,0.0,0.0,95,0.00,,---,0.00,VWS V14.01,2013-10-15 10:25:00,
2013-10-15 06:30:00,52.3,50.9,30.16,WNW,300,0.0,0.0,95,0.00,,---,0.00,VWS V14.01,2013-10-15 10:30:00,
2013-10-15 06:35:00,52.3,50.9,30.15,WNW,300,0.0,0.0,95,0.00,,---,0.00,VWS V14.01,2013-10-15 10:35:00,
2013-10-15 06:40:00,52.2,50.8,30.15,WNW,300,0.0,0.0,95,0.00,,---,0.00,VWS V14.01,2013-10-15 10:40:00,
2013-10-15 06:45:00,52.2,50.8,30.15,WNW,300,0.0,0.0,95,0.00,,---,0.00,VWS V14.01,2013-10-15 10:45:00,
2013-10-15 06:50:00,52.1,50.7,30.15,WNW,300,0.0,0.0,95,0.00,,---,0.00,VWS V14.01,2013-10-15 10:50:00,
2013-10-15 06:55:00,52.1,50.7,30.15,WNW,300,0.0,0.0,95,0.00,,---,0.00,VWS V14.01,2013-10-15 10:55:00,
2013-10-15 07:00:00,52.1,50.7,30.15,WNW,300,0.0,0.0,95,0.00,,---,0.00,VWS V14.01,2013-10-15 11:00:00,
2013-10-15 07:05:00,52.0,50.6,30.15,WNW,300,0.0,0.0,95,0.00,,---,0.00,VWS V14.01,2013-10-15 11:05:00,
2013-10-15 07:10:00,51.9,50.5,30.15,WNW,300,0.0,0.0,95,0.00,,---,0.00,VWS V14.01,2013-10-15 11:10:00,
2013-10-15 07:15:00,51.9,50.5,30.15,WNW,300,0.0,0.0,95,0.00,,---,0.00,VWS V14.01,2013-10-15 11:15:00,
2013-10-15 07:20:00,51.8,50.4,30.15,WNW,300,0.0,0.0,95,0.00,,---,0.00,VWS V14.01,2013-10-15 11:20:00,
2013-10-15 07:25:00,51.8,50.4,30.15,WNW,300,0.0,0.0,95,0.00,,---,0.00,VWS V14.01,2013-10-15 11:25:00,
2013-10-15 07:30:00,51.7,50.3,30.15,WNW,300,0.0,0.0,95,0.00,,---,0.00,VWS V14.01,2013-10-15 11:30:00,
2013-10-15 07:35:00,51.7,50.3,30.15,WNW,300,0.0,0.0,95,0.00,,---,0.00,VWS V14.01,2013-10-15 11:35:00,
2013-10-15 07:40:00,51.6,50.2,30.15,WNW,300,0.0,0.0,95,0.00,,---,0.00,VWS V14.01,2013-10-15 11:40:00,
2013-10-15 07:45:00,51.6,50.5,30.15,WNW,300,0.0,0.0,96,0.00,,---,0.00,VWS V14.01,2013-10-15 11:45:00,
2013-10-15 07:50:00,51.5,50.4,30.15,WNW,300,0.0,0.0,96,0.00,,---,0.00,VWS V14.01,2013-10-15 11:50:00,
2013-10-15 07:55:00,51.5,50.4,30.16,WNW,300,0.0,0.0,96,0.00,,---,0.00,VWS V14.01,2013-10-15 11:55:00,
2013-10-15 08:00:00,51.5,50.4,30.15,WNW,300,0.0,0.0,96,0.00,,---,0.00,VWS V14.01,2013-10-15 12:00:00,
2013-10-15 08:05:00,51.5,50.4,30.16,WNW,300,0.0,0.0,96,0.00,,---,0.00,VWS V14.01,2013-10-15 12:05:00,
2013-10-15 08:10:00,51.5,50.4,30.16,WNW,300,0.0,0.0,96,0.00,,---,0.00,VWS V14.01,2013-10-15 12:10:00,
2013-10-15 08:15:00,51.5,50.4,30.15,WNW,300,0.0,0.0,96,0.00,,---,0.00,VWS V14.01,2013-10-15 12:15:00,
2013-10-15 08:20:00,51.6,50.5,30.15,WNW,300,0.0,0.0,96,0.00,,---,0.00,VWS V14.01,2013-10-15 12:20:00,
2013-10-15 08:25:00,51.6,50.5,30.15,WNW,300,0.0,0.0,96,0.00,,---,0.00,VWS V14.01,2013-10-15 12:25:00,
2013-10-15 08:30:00,51.7,50.6,30.15,WNW,300,0.0,0.0,96,0.00,,---,0.00,VWS V14.01,2013-10-15 12:30:00,
2013-10-15 08:35:00,51.8,50.7,30.16,WNW,300,0.0,0.0,96,0.00,,---,0.00,VWS V14.01,2013-10-15 12:35:00,
2013-10-15 08:40:00,52.0,50.9,30.16,WNW,300,0.0,0.0,96,0.00,,---,0.00,VWS V14.01,2013-10-15 12:40:00,
2013-10-15 08:45:00,52.2,51.1,30.16,WNW,300,0.0,0.0,96,0.00,,---,0.00,VWS V14.01,2013-10-15 12:45:00,
2013-10-15 08:50:00,52.4,51.6,30.16,WNW,300,0.0,0.0,97,0.00,,---,0.00,VWS V14.01,2013-10-15 12:50:00,
2013-10-15 08:55:00,52.6,51.5,30.16,WNW,300,0.0,0.0,96,0.00,,---,0.00,VWS V14.01,2013-10-15 12:55:00,
2013-10-15 09:00:00,52.8,51.7,30.16,WNW,300,0.0,0.0,96,0.00,,---,0.00,VWS V14.01,2013-10-15 13:00:00,
2013-10-15 09:05:00,53.0,52.2,30.16,WNW,300,0.0,0.0,97,0.00,,---,0.00,VWS V14.01,2013-10-15 13:05:00,
2013-10-15 09:10:00,53.3,52.5,30.15,WNW,300,0.0,0.0,97,0.00,,---,0.00,VWS V14.01,2013-10-15 13:10:00,
2013-10-15 09:15:00,53.5,52.7,30.16,WNW,300,0.0,0.0,97,0.00,,---,0.00,VWS V14.01,2013-10-15 13:15:00,
2013-10-15 09:20:00,54.1,53.3,30.16,WNW,300,0.0,0.0,97,0.00,,---,0.00,VWS V14.01,2013-10-15 13:20:00,
2013-10-15 09:25:00,54.7,53.9,30.15,WNW,300,0.0,0.0,97,0.00,,---,0.00,VWS V14.01,2013-10-15 13:25:00,
2013-10-15 09:30:00,55.4,54.8,30.16,WNW,300,0.0,0.0,98,0.00,,---,0.00,VWS V14.01,2013-10-15 13:30:00,
2013-10-15 09:35:00,56.0,55.5,30.15,WNW,300,0.0,0.0,98,0.00,,---,0.00,VWS V14.01,2013-10-15 13:35:00,
2013-10-15 09:40:00,56.6,56.0,30.15,WNW,300,0.0,0.0,98,0.00,,---,0.00,VWS V14.01,2013-10-15 13:40:00,
2013-10-15 09:45:00,57.3,56.7,30.15,WNW,300,0.0,0.0,98,0.00,,---,0.00,VWS V14.01,2013-10-15 13:45:00,
2013-10-15 09:50:00,57.9,57.3,30.15,WNW,300,0.0,0.0,98,0.00,,---,0.00,VWS V14.01,2013-10-15 13:50:00,
2013-10-15 09:55:00,58.6,58.0,30.15,WNW,300,0.0,0.0,98,0.00,,---,0.00,VWS V14.01,2013-10-15 13:55:00,
2013-10-15 10:00:00,59.2,58.6,30.15,WNW,300,0.0,0.0,98,0.00,,---,0.00,VWS V14.01,2013-10-15 14:00:00,
2013-10-15 10:05:00,59.8,59.2,30.15,West,276,0.0,1.0,98,0.00,,---,0.00,VWS V14.01,2013-10-15 14:05:00,
2013-10-15 10:10:00,60.1,59.2,30.15,West,276,0.0,1.0,97,0.00,,---,0.00,VWS V14.01,2013-10-15 14:10:00,
2013-10-15 10:15:00,60.6,60.0,30.15,West,276,0.0,1.0,98,0.00,,---,0.00,VWS V14.01,2013-10-15 14:15:00,
2013-10-15 10:20:00,61.2,60.3,30.15,WSW,253,0.0,0.0,97,0.00,,---,0.00,VWS V14.01,2013-10-15 14:20:00,
2013-10-15 10:25:00,61.6,60.7,30.15,WSW,254,0.0,0.0,97,0.00,,---,0.00,VWS V14.01,2013-10-15 14:25:00,
2013-10-15 10:30:00,62.1,61.2,30.15,WSW,253,0.0,1.0,97,0.00,,---,0.00,VWS V14.01,2013-10-15 14:30:00,
2013-10-15 10:35:00,62.6,61.7,30.15,ENE,74,0.0,0.0,97,0.00,,---,0.00,VWS V14.01,2013-10-15 14:35:00,
2013-10-15 10:40:00,62.9,61.8,30.15,ENE,76,2.0,2.0,96,0.00,,---,0.00,VWS V14.01,2013-10-15 14:40:00,
2013-10-15 10:45:00,63.4,62.0,30.14,ENE,73,0.0,4.0,95,0.00,,---,0.00,VWS V14.01,2013-10-15 14:45:00,
2013-10-15 10:50:00,63.8,62.0,30.14,East,86,2.0,2.0,94,0.00,,---,0.00,VWS V14.01,2013-10-15 14:50:00,
2013-10-15 10:55:00,64.4,62.3,30.14,SSE,164,0.0,1.0,93,0.00,,---,0.00,VWS V14.01,2013-10-15 14:55:00,
2013-10-15 11:00:00,64.9,61.9,30.14,South,177,0.0,6.0,90,0.00,,---,0.00,VWS V14.01,2013-10-15 15:00:00,
2013-10-15 11:05:00,65.4,62.1,30.14,East,80,1.0,4.0,89,0.00,,---,0.00,VWS V14.01,2013-10-15 15:05:00,
2013-10-15 11:10:00,66.1,62.5,30.14,NNW,347,0.0,1.0,88,0.00,,---,0.00,VWS V14.01,2013-10-15 15:10:00,
2013-10-15 11:15:00,66.8,62.2,30.13,South,188,0.0,3.0,85,0.00,,---,0.00,VWS V14.01,2013-10-15 15:15:00,
2013-10-15 11:20:00,67.4,62.4,30.13,South,186,1.0,5.0,84,0.00,,---,0.00,VWS V14.01,2013-10-15 15:20:00,
2013-10-15 11:25:00,67.8,61.8,30.12,SSE,159,0.0,1.0,81,0.00,,---,0.00,VWS V14.01,2013-10-15 15:25:00,
2013-10-15 11:30:00,68.3,61.9,30.12,South,169,1.0,2.0,80,0.00,,---,0.00,VWS V14.01,2013-10-15 15:30:00,
2013-10-15 11:35:00,68.5,62.1,30.12,South,170,0.0,1.0,80,0.00,,---,0.00,VWS V14.01,2013-10-15 15:35:00,
2013-10-15 11:40:00,68.9,62.5,30.12,SE,134,0.0,2.0,80,0.00,,---,0.00,VWS V14.01,2013-10-15 15:40:00,
2013-10-15 11:45:00,69.2,62.8,30.12,SE,142,2.0,3.0,80,0.00,,---,0.00,VWS V14.01,2013-10-15 15:45:00,
2013-10-15 11:50:00,69.4,62.2,30.12,ESE,111,0.0,1.0,78,0.00,,---,0.00,VWS V14.01,2013-10-15 15:50:00,
2013-10-15 11:55:00,69.7,62.5,30.11,SSE,163,0.0,3.0,78,0.00,,---,0.00,VWS V14.01,2013-10-15 15:55:00,
2013-10-15 12:00:00,69.8,62.3,30.11,West,262,0.0,2.0,77,0.00,,---,0.00,VWS V14.01,2013-10-15 16:00:00,
2013-10-15 12:05:00,69.9,62.7,30.11,East,94,1.0,1.0,78,0.00,,---,0.00,VWS V14.01,2013-10-15 16:05:00,
2013-10-15 12:10:00,70.0,62.8,30.11,SSE,157,0.0,0.0,78,0.00,,---,0.00,VWS V14.01,2013-10-15 16:10:00,
2013-10-15 12:15:00,70.2,63.0,30.12,ESE,115,2.0,3.0,78,0.00,,---,0.00,VWS V14.01,2013-10-15 16:15:00,
2013-10-15 12:20:00,70.4,62.8,30.11,East,84,0.0,2.0,77,0.00,,---,0.00,VWS V14.01,2013-10-15 16:20:00,
2013-10-15 12:25:00,70.5,63.0,30.11,East,92,0.0,2.0,77,0.00,,---,0.00,VWS V14.01,2013-10-15 16:25:00,
2013-10-15 12:30:00,70.6,62.7,30.11,SE,130,1.0,1.0,76,0.00,,---,0.00,VWS V14.01,2013-10-15 16:30:00,
2013-10-15 12:35:00,70.7,62.4,30.11,ENE,76,1.0,1.0,75,0.00,,---,0.00,VWS V14.01,2013-10-15 16:35:00,
2013-10-15 12:40:00,70.8,63.2,30.11,NNE,21,1.0,1.0,77,0.00,,---,0.00,VWS V14.01,2013-10-15 16:40:00,
2013-10-15 12:45:00,70.9,63.0,30.11,ESE,118,1.0,2.0,76,0.00,,---,0.00,VWS V14.01,2013-10-15 16:45:00,
2013-10-15 12:50:00,70.9,63.0,30.10,South,173,0.0,1.0,76,0.00,,---,0.00,VWS V14.01,2013-10-15 16:50:00,
2013-10-15 13:23:00,71.2,63.3,30.08,ESE,102,2.0,4.0,76,0.00,,---,0.00,VWS V14.01,2013-10-15 17:23:00,
2013-10-15 13:28:00,71.2,63.3,30.08,SSE,160,0.0,2.0,76,0.00,,---,0.00,VWS V14.01,2013-10-15 17:28:00,
2013-10-15 13:33:00,71.3,63.3,30.08,SSE,159,0.0,1.0,76,0.00,,---,0.00,VWS V14.01,2013-10-15 17:33:00,
2013-10-15 13:38:00,71.3,63.0,30.08,SSW,197,0.0,3.0,75,0.00,,---,0.00,VWS V14.01,2013-10-15 17:38:00,
2013-10-15 13:43:00,71.3,63.0,30.07,SSW,197,0.0,0.0,75,0.00,,---,0.00,VWS V14.01,2013-10-15 17:43:00,
2013-10-15 13:48:00,71.4,63.5,30.07,NNW,333,0.0,1.0,76,0.00,,---,0.00,VWS V14.01,2013-10-15 17:48:00,
2013-10-15 13:53:00,71.4,63.1,30.07,South,177,0.0,4.0,75,0.00,,---,0.00,VWS V14.01,2013-10-15 17:53:00,
2013-10-15 13:58:00,71.4,63.1,30.06,South,179,0.0,3.0,75,0.00,,---,0.00,VWS V14.01,2013-10-15 17:58:00,
2013-10-15 14:03:00,71.4,63.5,30.06,South,183,0.0,3.0,76,0.00,,---,0.00,VWS V14.01,2013-10-15 18:03:00,
2013-10-15 14:08:00,71.5,63.5,30.06,East,81,1.0,3.0,76,0.00,,---,0.00,VWS V14.01,2013-10-15 18:08:00,
2013-10-15 14:13:00,71.5,63.9,30.06,SSE,165,0.0,3.0,77,0.00,,---,0.00,VWS V14.01,2013-10-15 18:13:00,
2013-10-15 14:18:00,71.5,63.5,30.06,ENE,65,2.0,3.0,76,0.00,,---,0.00,VWS V14.01,2013-10-15 18:18:00,
2013-10-15 14:23:00,71.6,63.6,30.06,ENE,59,0.0,2.0,76,0.00,,---,0.00,VWS V14.01,2013-10-15 18:23:00,
2013-10-15 14:28:00,71.8,63.8,30.06,East,82,2.0,3.0,76,0.00,,---,0.00,VWS V14.01,2013-10-15 18:28:00,
2013-10-15 14:33:00,71.9,63.5,30.05,ESE,105,1.0,4.0,75,0.00,,---,0.00,VWS V14.01,2013-10-15 18:33:00,
2013-10-15 14:38:00,72.0,63.7,30.05,NE,53,1.0,6.0,75,0.00,,---,0.00,VWS V14.01,2013-10-15 18:38:00,
2013-10-15 14:43:00,72.0,63.3,30.05,ESE,107,0.0,3.0,74,0.00,,---,0.00,VWS V14.01,2013-10-15 18:43:00,
2013-10-15 14:48:00,72.0,62.9,30.05,SE,142,1.0,5.0,73,0.00,,---,0.00,VWS V14.01,2013-10-15 18:48:00,
2013-10-15 14:53:00,72.0,63.3,30.05,East,90,0.0,1.0,74,0.00,,---,0.00,VWS V14.01,2013-10-15 18:53:00,
2013-10-15 14:58:00,72.0,63.3,30.04,NE,49,0.0,5.0,74,0.00,,---,0.00,VWS V14.01,2013-10-15 18:58:00,
2013-10-15 15:03:00,72.0,63.3,30.04,South,169,0.0,4.0,74,0.00,,---,0.00,VWS V14.01,2013-10-15 19:03:00,
2013-10-15 15:08:00,72.0,63.3,30.03,ENE,78,0.0,3.0,74,0.00,,---,0.00,VWS V14.01,2013-10-15 19:08:00,
2013-10-15 15:13:00,72.0,63.3,30.03,South,186,1.0,2.0,74,0.00,,---,0.00,VWS V14.01,2013-10-15 19:13:00,
2013-10-15 15:18:00,72.1,63.0,30.03,ESE,119,2.0,5.0,73,0.00,,---,0.00,VWS V14.01,2013-10-15 19:18:00,
2013-10-15 15:23:00,72.1,63.0,30.03,NE,53,2.0,5.0,73,0.00,,---,0.00,VWS V14.01,2013-10-15 19:23:00,
2013-10-15 15:28:00,72.2,63.1,30.03,East,94,0.0,6.0,73,0.00,,---,0.00,VWS V14.01,2013-10-15 19:28:00,
2013-10-15 15:33:00,72.2,62.7,30.03,SE,144,0.0,3.0,72,0.00,,---,0.00,VWS V14.01,2013-10-15 19:33:00,
2013-10-15 15:38:00,72.3,62.8,30.03,SE,143,0.0,1.0,72,0.00,,---,0.00,VWS V14.01,2013-10-15 19:38:00,
2013-10-15 15:43:00,72.3,62.8,30.03,South,180,2.0,4.0,72,0.00,,---,0.00,VWS V14.01,2013-10-15 19:43:00,
2013-10-15 15:48:00,72.3,62.8,30.03,SSE,150,0.0,3.0,72,0.00,,---,0.00,VWS V14.01,2013-10-15 19:48:00,
2013-10-15 15:53:00,72.4,63.3,30.02,WSW,240,0.0,1.0,73,0.00,,---,0.00,VWS V14.01,2013-10-15 19:53:00,
2013-10-15 15:58:00,72.4,62.9,30.02,WSW,240,0.0,0.0,72,0.00,,---,0.00,VWS V14.01,2013-10-15 19:58:00,
2013-10-15 16:03:00,72.4,62.9,30.02,WSW,240,0.0,1.0,72,0.00,,---,0.00,VWS V14.01,2013-10-15 20:03:00,
2013-10-15 16:08:00,72.4,62.9,30.02,WSW,240,0.0,1.0,72,0.00,,---,0.00,VWS V14.01,2013-10-15 20:08:00,
2013-10-15 16:13:00,72.3,63.2,30.02,East,98,0.0,2.0,73,0.00,,---,0.00,VWS V14.01,2013-10-15 20:13:00,
2013-10-15 16:18:00,72.2,62.7,30.02,SSE,150,0.0,1.0,72,0.00,,---,0.00,VWS V14.01,2013-10-15 20:18:00,
2013-10-15 16:23:00,72.1,62.6,30.02,SSE,150,0.0,0.0,72,0.00,,---,0.00,VWS V14.01,2013-10-15 20:23:00,
2013-10-15 16:28:00,72.0,62.1,30.02,SSE,150,0.0,0.0,71,0.00,,---,0.00,VWS V14.01,2013-10-15 20:28:00,
2013-10-15 16:33:00,72.0,62.5,30.02,SSE,150,0.0,0.0,72,0.00,,---,0.00,VWS V14.01,2013-10-15 20:33:00,
2013-10-15 16:38:00,72.0,62.5,30.02,ENE,67,0.0,2.0,72,0.00,,---,0.00,VWS V14.01,2013-10-15 20:38:00,
2013-10-15 16:43:00,71.9,62.4,30.02,ENE,67,0.0,0.0,72,0.00,,---,0.00,VWS V14.01,2013-10-15 20:43:00,
2013-10-15 16:48:00,71.9,62.4,30.02,ENE,64,0.0,2.0,72,0.00,,---,0.00,VWS V14.01,2013-10-15 20:48:00,
2013-10-15 16:53:00,71.8,63.1,30.01,ENE,64,0.0,0.0,74,0.00,,---,0.00,VWS V14.01,2013-10-15 20:53:00,
2013-10-15 16:58:00,71.7,62.6,30.01,ENE,65,0.0,0.0,73,0.00,,---,0.00,VWS V14.01,2013-10-15 20:58:00,
2013-10-15 17:03:00,71.6,62.5,30.01,ENE,65,0.0,0.0,73,0.00,,---,0.00,VWS V14.01,2013-10-15 21:03:00,
2013-10-15 17:08:00,71.6,62.5,30.01,ENE,65,0.0,0.0,73,0.00,,---,0.00,VWS V14.01,2013-10-15 21:08:00,
2013-10-15 17:13:00,71.6,63.6,30.01,ENE,65,0.0,0.0,76,0.00,,---,0.00,VWS V14.01,2013-10-15 21:13:00,
2013-10-15 17:18:00,71.6,63.6,30.01,ENE,65,0.0,0.0,76,0.00,,---,0.00,VWS V14.01,2013-10-15 21:18:00,
2013-10-15 17:23:00,71.5,63.5,30.01,ENE,65,0.0,0.0,76,0.00,,---,0.00,VWS V14.01,2013-10-15 21:23:00,
2013-10-15 17:28:00,71.3,63.3,30.01,ENE,65,0.0,0.0,76,0.00,,---,0.00,VWS V14.01,2013-10-15 21:28:00,
2013-10-15 17:33:00,71.2,63.3,30.01,ENE,65,0.0,0.0,76,0.00,,---,0.00,VWS V14.01,2013-10-15 21:33:00,
2013-10-15 17:38:00,71.1,63.2,30.01,ENE,65,0.0,0.0,76,0.00,,---,0.00,VWS V14.01,2013-10-15 21:38:00,
2013-10-15 17:43:00,70.9,63.3,30.01,ENE,65,0.0,0.0,77,0.00,,---,0.00,VWS V14.01,2013-10-15 21:43:00,
2013-10-15 17:48:00,70.8,63.6,30.01,ENE,65,0.0,0.0,78,0.00,,---,0.00,VWS V14.01,2013-10-15 21:48:00,
2013-10-15 17:53:00,70.6,63.4,30.01,ENE,65,0.0,0.0,78,0.00,,---,0.00,VWS V14.01,2013-10-15 21:53:00,
2013-10-15 17:58:00,70.3,63.5,30.01,ENE,65,0.0,0.0,79,0.00,,---,0.00,VWS V14.01,2013-10-15 21:58:00,
2013-10-15 18:03:00,70.1,63.3,30.01,ENE,65,0.0,0.0,79,0.00,,---,0.00,VWS V14.01,2013-10-15 22:03:00,
2013-10-15 18:08:00,69.8,63.0,30.01,ENE,65,0.0,0.0,79,0.00,,---,0.00,VWS V14.01,2013-10-15 22:08:00,
2013-10-15 18:13:00,69.5,62.7,30.01,ENE,65,0.0,0.0,79,0.00,,---,0.00,VWS V14.01,2013-10-15 22:13:00,
2013-10-15 18:18:00,69.1,62.3,30.01,ENE,65,0.0,0.0,79,0.00,,---,0.00,VWS V14.01,2013-10-15 22:18:00,
2013-10-15 18:23:00,68.9,62.5,30.01,ENE,65,0.0,0.0,80,0.00,,---,0.00,VWS V14.01,2013-10-15 22:23:00,
2013-10-15 18:28:00,68.6,62.2,30.01,ENE,65,0.0,0.0,80,0.00,,---,0.00,VWS V14.01,2013-10-15 22:28:00,
2013-10-15 18:33:00,68.2,62.2,30.01,ENE,65,0.0,0.0,81,0.00,,---,0.00,VWS V14.01,2013-10-15 22:33:00,
2013-10-15 18:38:00,67.9,61.9,30.00,ENE,65,0.0,0.0,81,0.00,,---,0.00,VWS V14.01,2013-10-15 22:38:00,
2013-10-15 18:43:00,67.5,61.8,30.00,ENE,65,0.0,0.0,82,0.00,,---,0.00,VWS V14.01,2013-10-15 22:43:00,
2013-10-15 18:48:00,67.2,61.5,30.00,ENE,65,0.0,0.0,82,0.00,,---,0.00,VWS V14.01,2013-10-15 22:48:00,
2013-10-15 18:53:00,66.8,61.5,30.00,ENE,65,0.0,0.0,83,0.00,,---,0.00,VWS V14.01,2013-10-15 22:53:00,
2013-10-15 18:58:00,66.5,61.2,30.00,ENE,65,0.0,0.0,83,0.00,,---,0.00,VWS V14.01,2013-10-15 22:58:00,
2013-10-15 19:03:00,66.2,61.2,30.00,ENE,65,0.0,0.0,84,0.00,,---,0.00,VWS V14.01,2013-10-15 23:03:00,
2013-10-15 19:08:00,65.9,60.9,30.00,ENE,65,0.0,0.0,84,0.00,,---,0.00,VWS V14.01,2013-10-15 23:08:00,
2013-10-15 19:13:00,65.5,60.5,30.00,ENE,65,0.0,0.0,84,0.00,,---,0.00,VWS V14.01,2013-10-15 23:13:00,
2013-10-15 19:18:00,65.2,60.6,29.99,ENE,65,0.0,0.0,85,0.00,,---,0.00,VWS V14.01,2013-10-15 23:18:00,
2013-10-15 19:23:00,64.9,60.3,30.00,ENE,65,0.0,0.0,85,0.00,,---,0.00,VWS V14.01,2013-10-15 23:23:00,
2013-10-15 19:28:00,64.6,60.3,29.99,ENE,65,0.0,0.0,86,0.00,,---,0.00,VWS V14.01,2013-10-15 23:28:00,
2013-10-15 19:33:00,64.4,60.1,29.99,ENE,65,0.0,0.0,86,0.00,,---,0.00,VWS V14.01,2013-10-15 23:33:00,
2013-10-15 19:38:00,64.1,59.8,30.00,ENE,65,0.0,0.0,86,0.00,,---,0.00,VWS V14.01,2013-10-15 23:38:00,
2013-10-15 19:43:00,63.9,60.0,29.99,ENE,65,0.0,0.0,87,0.00,,---,0.00,VWS V14.01,2013-10-15 23:43:00,
2013-10-15 19:48:00,63.6,59.7,29.99,ENE,65,0.0,0.0,87,0.00,,---,0.00,VWS V14.01,2013-10-15 23:48:00,
2013-10-15 19:53:00,63.3,59.4,29.99,ENE,65,0.0,0.0,87,0.00,,---,0.00,VWS V14.01,2013-10-15 23:53:00,
2013-10-15 19:58:00,63.1,59.5,29.99,ENE,65,0.0,0.0,88,0.00,,---,0.00,VWS V14.01,2013-10-15 23:58:00,
2013-10-15 20:03:00,62.9,59.3,29.98,ENE,65,0.0,0.0,88,0.00,,---,0.00,VWS V14.01,2013-10-16 00:03:00,
2013-10-15 20:08:00,62.6,59.0,29.99,ENE,65,0.0,0.0,88,0.00,,---,0.00,VWS V14.01,2013-10-16 00:08:00,
2013-10-15 20:13:00,62.4,58.8,29.99,ENE,65,0.0,0.0,88,0.00,,---,0.00,VWS V14.01,2013-10-16 00:13:00,
2013-10-15 20:18:00,62.2,58.6,29.99,ENE,65,0.0,0.0,88,0.00,,---,0.00,VWS V14.01,2013-10-16 00:18:00,
2013-10-15 20:23:00,62.0,58.7,29.99,ENE,65,0.0,0.0,89,0.00,,---,0.00,VWS V14.01,2013-10-16 00:23:00,
2013-10-15 20:28:00,61.8,58.5,29.98,ENE,65,0.0,0.0,89,0.00,,---,0.00,VWS V14.01,2013-10-16 00:28:00,
2013-10-15 20:33:00,61.5,58.2,29.98,ENE,65,0.0,0.0,89,0.00,,---,0.00,VWS V14.01,2013-10-16 00:33:00,
2013-10-15 20:38:00,61.3,58.0,29.98,ENE,65,0.0,0.0,89,0.00,,---,0.00,VWS V14.01,2013-10-16 00:38:00,
2013-10-15 20:43:00,61.1,57.8,29.98,ENE,65,0.0,0.0,89,0.00,,---,0.00,VWS V14.01,2013-10-16 00:43:00,
2013-10-15 20:48:00,60.8,57.5,29.98,ENE,65,0.0,0.0,89,0.00,,---,0.00,VWS V14.01,2013-10-16 00:48:00,
2013-10-15 20:53:00,60.7,57.8,29.98,ENE,65,0.0,0.0,90,0.00,,---,0.00,VWS V14.01,2013-10-16 00:53:00,
2013-10-15 20:58:00,60.5,57.6,29.99,ENE,65,0.0,0.0,90,0.00,,---,0.00,VWS V14.01,2013-10-16 00:58:00,
2013-10-15 21:03:00,60.3,57.4,29.99,ENE,65,0.0,0.0,90,0.00,,---,0.00,VWS V14.01,2013-10-16 01:03:00,
2013-10-15 21:08:00,60.2,57.3,29.99,ENE,65,0.0,0.0,90,0.00,,---,0.00,VWS V14.01,2013-10-16 01:08:00,
2013-10-15 21:13:00,60.0,57.1,29.98,ENE,65,0.0,0.0,90,0.00,,---,0.00,VWS V14.01,2013-10-16 01:13:00,
2013-10-15 21:18:00,59.8,56.9,29.98,ENE,65,0.0,0.0,90,0.00,,---,0.00,VWS V14.01,2013-10-16 01:18:00,
2013-10-15 21:23:00,59.7,57.1,29.99,ENE,65,0.0,0.0,91,0.00,,---,0.00,VWS V14.01,2013-10-16 01:23:00,
2013-10-15 21:28:00,59.5,56.9,29.99,ENE,65,0.0,0.0,91,0.00,,---,0.00,VWS V14.01,2013-10-16 01:28:00,
2013-10-15 21:33:00,59.3,56.7,29.99,ENE,65,0.0,0.0,91,0.00,,---,0.00,VWS V14.01,2013-10-16 01:33:00,
2013-10-15 21:38:00,59.0,56.4,29.99,ENE,65,0.0,0.0,91,0.00,,---,0.00,VWS V14.01,2013-10-16 01:38:00,
2013-10-15 21:43:00,58.8,56.2,29.99,ENE,65,0.0,0.0,91,0.00,,---,0.00,VWS V14.01,2013-10-16 01:43:00,
2013-10-15 21:48:00,58.6,56.0,29.99,ENE,65,0.0,0.0,91,0.00,,---,0.00,VWS V14.01,2013-10-16 01:48:00,
2013-10-15 21:53:00,58.4,55.8,29.99,ENE,65,0.0,0.0,91,0.00,,---,0.00,VWS V14.01,2013-10-16 01:53:00,
2013-10-15 21:58:00,58.1,55.5,29.99,ENE,65,0.0,0.0,91,0.00,,---,0.00,VWS V14.01,2013-10-16 01:58:00,
2013-10-15 22:03:00,57.9,55.3,29.99,ENE,65,0.0,0.0,91,0.00,,---,0.00,VWS V14.01,2013-10-16 02:03:00,
2013-10-15 22:08:00,57.7,55.1,29.99,ENE,65,0.0,0.0,91,0.00,,---,0.00,VWS V14.01,2013-10-16 02:08:00,
2013-10-15 22:13:00,57.5,54.9,30.00,ENE,65,0.0,0.0,91,0.00,,---,0.00,VWS V14.01,2013-10-16 02:13:00,
2013-10-15 22:18:00,57.3,54.7,29.99,ENE,65,0.0,0.0,91,0.00,,---,0.00,VWS V14.01,2013-10-16 02:18:00,
2013-10-15 22:23:00,57.1,54.5,29.99,ENE,65,0.0,0.0,91,0.00,,---,0.00,VWS V14.01,2013-10-16 02:23:00,
2013-10-15 22:28:00,56.9,54.3,29.99,ENE,65,0.0,0.0,91,0.00,,---,0.00,VWS V14.01,2013-10-16 02:28:00,
2013-10-15 22:33:00,56.7,54.1,29.98,ENE,65,0.0,0.0,91,0.00,,---,0.00,VWS V14.01,2013-10-16 02:33:00,
2013-10-15 22:38:00,56.5,53.9,29.98,ENE,65,0.0,0.0,91,0.00,,---,0.00,VWS V14.01,2013-10-16 02:38:00,
2013-10-15 22:43:00,56.3,53.7,29.98,ENE,65,0.0,0.0,91,0.00,,---,0.00,VWS V14.01,2013-10-16 02:43:00,
2013-10-15 22:48:00,56.2,53.9,29.98,ENE,65,0.0,0.0,92,0.00,,---,0.00,VWS V14.01,2013-10-16 02:48:00,
2013-10-15 22:53:00,56.0,53.4,29.98,ENE,65,0.0,0.0,91,0.00,,---,0.00,VWS V14.01,2013-10-16 02:53:00,
2013-10-15 22:58:00,55.8,53.5,29.98,ENE,65,0.0,0.0,92,0.00,,---,0.00,VWS V14.01,2013-10-16 02:58:00,
2013-10-15 23:03:00,55.7,53.4,29.98,ENE,65,0.0,0.0,92,0.00,,---,0.00,VWS V14.01,2013-10-16 03:03:00,
2013-10-15 23:08:00,55.5,53.2,29.98,ENE,65,0.0,0.0,92,0.00,,---,0.00,VWS V14.01,2013-10-16 03:08:00,
2013-10-15 23:13:00,55.4,53.1,29.97,ENE,65,0.0,0.0,92,0.00,,---,0.00,VWS V14.01,2013-10-16 03:13:00,
2013-10-15 23:18:00,55.2,52.9,29.97,ENE,65,0.0,0.0,92,0.00,,---,0.00,VWS V14.01,2013-10-16 03:18:00,
2013-10-15 23:23:00,55.1,52.8,29.97,ENE,65,0.0,0.0,92,0.00,,---,0.00,VWS V14.01,2013-10-16 03:23:00,
2013-10-15 23:28:00,54.9,52.6,29.97,ENE,65,0.0,0.0,92,0.00,,---,0.00,VWS V14.01,2013-10-16 03:28:00,
2013-10-15 23:33:00,54.8,52.5,29.97,ENE,65,0.0,0.0,92,0.00,,---,0.00,VWS V14.01,2013-10-16 03:33:00,
2013-10-15 23:38:00,54.6,52.3,29.97,ENE,65,0.0,0.0,92,0.00,,---,0.00,VWS V14.01,2013-10-16 03:38:00,
2013-10-15 23:43:00,54.5,52.2,29.97,ENE,65,0.0,0.0,92,0.00,,---,0.00,VWS V14.01,2013-10-16 03:43:00,
2013-10-15 23:48:00,54.4,52.1,29.98,ENE,65,0.0,0.0,92,0.00,,---,0.00,VWS V14.01,2013-10-16 03:48:00,
2013-10-15 23:53:00,54.2,51.9,29.98,ENE,65,0.0,0.0,92,0.00,,---,0.00,VWS V14.01,2013-10-16 03:53:00,
2013-10-15 23:58:00,54.1,51.8,29.97,ENE,65,0.0,0.0,92,0.00,,---,0.00,VWS V14.01,2013-10-16 03:58:00,